DW4391 Weather Reports


Display with metric or nautical units.
time (UTC)temp
F
wind
direction
speed
MPH
gust
MPH
rain 1hr
in
rain 24hr
in
rain mn
in
humidity
%
barometer
mb
20260906111550 72 266 0.0 0.0 0.00 0.00 0.00 94 1009.2
20260906110048 72 266 0.0 0.0 0.00 0.00 0.00 94 1009.2
20260906104549 72 266 0.0 0.0 0.00 0.00 0.00 94 1009.2
20260906103049 72 266 0.0 0.0 0.00 0.00 0.00 95 1009.1
20260906101547 71 266 0.0 0.0 0.00 0.00 0.00 95 1009.0
20260906100045 71 266 0.0 0.0 0.00 0.00 0.00 95 1009.2
20260906094555 71 266 0.0 0.0 0.00 0.00 0.00 95 1009.3
20260906093048 71 266 0.0 0.0 0.00 0.00 0.00 95 1009.3
20260906091542 71 266 0.0 0.0 0.00 0.00 0.00 95 1009.0
20260906090050 71 266 0.0 0.0 0.00 0.00 0.00 94 1009.1
20260906084540 71 266 0.0 0.0 0.00 0.00 0.00 94 1009.0
20260906083045 71 266 0.0 0.0 0.00 0.00 0.00 94 1008.8
20260906081536 72 266 0.0 0.0 0.00 0.00 0.00 93 1008.8
20260906080039 72 266 0.0 0.0 0.00 0.00 0.00 93 1008.7
20260906074535 72 266 0.0 0.0 0.00 0.00 0.00 94 1008.7
20260906073033 72 266 0.0 0.0 0.00 0.00 0.00 94 1008.7
20260906071531 72 266 0.0 0.0 0.00 0.00 0.00 94 1008.8
20260906070029 72 266 0.0 0.0 0.00 0.00 0.00 93 1008.8
20260906064531 72 266 0.0 0.0 0.00 0.00 0.00 93 1008.8
20260906063024 72 266 0.0 0.0 0.00 0.00 0.00 93 1009.0
20260906061522 72 267 0.0 0.0 0.00 0.00 0.00 92 1009.1
20260906060023 73 267 0.0 0.0 0.00 0.00 0.00 92 1009.2
20260906054519 73 267 0.0 0.0 0.00 0.00 0.00 91 1009.3
20260906053018 73 267 0.0 0.0 0.00 0.00 0.00 91 1009.2
20260906051518 73 267 0.0 0.0 0.00 0.00 0.00 91 1009.6
20260906050014 73 266 0.0 0.0 0.00 0.00 0.00 90 1009.4
20260906044517 73 267 0.0 0.0 0.00 0.00 0.00 90 1009.4
20260906043025 74 267 0.0 0.0 0.00 0.00 0.00 89 1009.5
20260906041510 74 267 0.0 0.0 0.00 0.00 0.00 89 1009.6
20260906040008 74 267 0.0 0.0 0.00 0.00 0.00 89 1009.3
20260906034507 74 267 0.0 0.0 0.00 0.00 0.00 89 1009.6
20260906033007 74 267 0.0 0.0 0.00 0.00 0.00 89 1009.8
20260906031510 74 267 0.0 0.0 0.00 0.00 0.00 88 1010.0
20260906030005 75 267 0.0 0.0 0.00 0.00 0.00 88 1010.0
20260906024505 75 267 0.0 0.0 0.00 0.00 0.00 88 1010.2
20260906023004 75 267 0.0 0.0 0.00 0.00 0.00 87 1010.5
20260906021505 75 267 0.0 0.0 0.00 0.00 0.00 86 1010.3
20260906020004 76 266 0.0 0.0 0.00 0.00 0.00 86 1010.3
20260906014505 76 266 0.0 0.0 0.00 0.00 0.00 85 1010.0
20260906013002 77 267 0.0 0.0 0.00 0.00 0.00 84 1010.0
20260906011502 77 266 0.0 0.0 0.00 0.00 0.00 83 1009.8
20260906010002 78 106 0.0 0.0 0.00 0.00 0.00 82 1009.4
20260906004501 78 119 0.0 1.0 0.00 0.00 0.00 79 1009.0
20260906003101 79 79 0.0 1.0 0.00 0.00 0.00 75 1008.8
20260906001606 79 72 2.0 4.0 0.00 0.00 0.00 73 1008.9
20260906000100 80 357 0.0 0.0 0.00 0.00 0.00 71 1008.1
20260905234601 80 357 0.0 0.0 0.00 0.00 0.00 71 1007.0
20260905233058 80 357 0.0 1.0 0.00 0.00 0.00 72 1006.8
20260905231559 80 70 1.0 7.0 0.00 0.00 0.00 72 1007.9
20260905230056 80 109 3.0 8.0 0.00 0.00 0.00 76 1008.8
20260905224555 85 66 5.0 15.0 0.00 0.00 0.00 69 1009.0
20260905223056 93 23 0.0 0.0 0.00 0.00 0.00 59 1007.1
20260905221559 93 259 0.0 0.0 0.00 0.00 0.00 58 1007.2
20260905220055 93 248 0.0 0.0 0.00 0.00 0.00 58 1007.1
20260905214553 93 247 0.0 0.0 0.00 0.00 0.00 58 1006.9
20260905213051 93 289 0.0 0.0 0.00 0.00 0.00 59 1006.8
20260905211552 93 290 0.0 0.0 0.00 0.00 0.00 58 1006.9
20260905210106 94 271 0.0 0.0 0.00 0.00 0.00 57 1007.2
20260905204547 94 255 0.0 0.0 0.00 0.00 0.00 58 1007.5
20260905203046 93 341 0.0 0.0 0.00 0.00 0.00 59 1007.7
20260905201543 93 243 0.0 0.0 0.00 0.00 0.00 58 1007.9
20260905200108 93 283 0.0 0.0 0.00 0.00 0.00 58 1008.1
20260905194540 93 180 0.0 0.0 0.00 0.00 0.00 60 1008.2
20260905193041 92 103 0.0 0.0 0.00 0.00 0.00 60 1008.3
20260905191537 92 317 0.0 0.0 0.00 0.00 0.00 61 1008.4
20260905190035 94 243 0.0 0.0 0.00 0.00 0.00 59 1008.7
20260905184540 92 144 0.0 0.0 0.00 0.00 0.00 59 1008.9
20260905183039 92 257 0.0 0.0 0.00 0.00 0.00 60 1009.2
20260905181535 93 287 0.0 0.0 0.00 0.00 0.00 60 1009.4
20260905180038 93 255 0.0 0.0 0.00 0.00 0.00 61 1009.5
20260905174527 94 30 0.0 0.0 0.00 0.00 0.00 57 1009.7
20260905173037 93 62 0.0 0.0 0.00 0.00 0.00 62 1009.9
20260905171521 92 82 0.0 0.0 0.00 0.00 0.00 62 1010.1
20260905170018 91 102 0.0 1.0 0.00 0.00 0.00 63 1010.2
20260905164515 90 294 0.0 3.0 0.00 0.00 0.00 65 1010.4
20260905163012 89 349 0.0 0.0 0.00 0.00 0.00 66 1010.5
20260905161512 89 342 0.0 0.0 0.00 0.00 0.00 67 1010.8
20260905160008 88 25 0.0 0.0 0.00 0.00 0.00 68 1011.0
20260905154505 87 65 0.0 0.0 0.00 0.00 0.00 70 1011.2
20260905153001 86 110 0.0 0.0 0.00 0.00 0.00 74 1011.3
20260905151624 85 6 0.0 0.0 0.00 0.00 0.00 75 1011.3
20260905150055 84 340 0.0 0.0 0.00 0.00 0.00 77 1011.3
20260905144553 83 340 0.0 0.0 0.00 0.00 0.00 78 1011.4
20260905143048 82 39 0.0 0.0 0.00 0.00 0.00 79 1011.5
20260905141546 81 91 0.0 0.0 0.00 0.00 0.00 82 1011.6
20260905140042 80 91 0.0 0.0 0.00 0.00 0.00 85 1011.7
20260905134541 78 91 0.0 0.0 0.00 0.00 0.00 86 1011.8
20260905133036 77 91 0.0 0.0 0.00 0.00 0.00 90 1011.8
20260905131541 76 91 0.0 0.0 0.00 0.00 0.00 94 1012.0
20260905130034 74 91 0.0 0.0 0.00 0.00 0.00 96 1012.1
20260905124535 74 91 0.0 0.0 0.00 0.00 0.00 97 1012.0
20260905123056 73 91 0.0 0.0 0.00 0.00 0.00 97 1012.0
20260905121530 73 91 0.0 0.0 0.00 0.00 0.00 97 1011.9
20260905120031 72 91 0.0 0.0 0.00 0.00 0.00 97 1011.7
20260905114528 72 91 0.0 0.0 0.00 0.00 0.00 96 1011.6
20260905113028 72 91 0.0 0.0 0.00 0.00 0.00 96 1011.5